Year,Month,Day,Hour,Minute,Value (Times are PST for temperature in C)
2009,11,27,00,00,5.10
2009,11,27,00,01,5.10
2009,11,27,00,02,5.10
2009,11,27,00,03,5.10
2009,11,27,00,04,5.10
2009,11,27,00,05,5.10
2009,11,27,00,06,5.10
2009,11,27,00,07,5.00
2009,11,27,00,08,5.00
2009,11,27,00,09,4.90
2009,11,27,00,10,4.90
2009,11,27,00,11,4.90
2009,11,27,00,12,4.90
2009,11,27,00,13,4.80
2009,11,27,00,14,4.80
2009,11,27,00,15,4.80
2009,11,27,00,16,4.80
2009,11,27,00,17,4.70
2009,11,27,00,18,4.70
2009,11,27,00,19,4.70
2009,11,27,00,20,4.70
2009,11,27,00,21,4.70
2009,11,27,00,22,4.60
2009,11,27,00,23,4.60
2009,11,27,00,24,4.60
2009,11,27,00,25,4.60
2009,11,27,00,26,4.60
2009,11,27,00,27,4.60
2009,11,27,00,28,4.50
2009,11,27,00,29,4.50
2009,11,27,00,30,4.50
2009,11,27,00,31,4.50
2009,11,27,00,32,4.50
2009,11,27,00,33,4.50
2009,11,27,00,34,4.50
2009,11,27,00,35,4.50
2009,11,27,00,36,4.50
2009,11,27,00,37,4.40
2009,11,27,00,38,4.40
2009,11,27,00,39,4.40
2009,11,27,00,40,4.40
2009,11,27,00,41,4.40
2009,11,27,00,42,4.30
2009,11,27,00,43,4.30
2009,11,27,00,44,4.30
2009,11,27,00,45,4.30
2009,11,27,00,46,4.30
2009,11,27,00,47,4.20
2009,11,27,00,48,4.20
2009,11,27,00,49,4.20
2009,11,27,00,50,4.20
2009,11,27,00,51,4.10
2009,11,27,00,52,4.10
2009,11,27,00,53,4.10
2009,11,27,00,54,4.10
2009,11,27,00,55,4.00
2009,11,27,00,56,4.00
2009,11,27,00,57,3.90
2009,11,27,00,58,3.90
2009,11,27,00,59,3.90
2009,11,27,01,00,3.90
2009,11,27,01,01,3.90
2009,11,27,01,02,3.80
2009,11,27,01,03,3.80
2009,11,27,01,04,3.80
2009,11,27,01,05,3.80
2009,11,27,01,06,3.80
2009,11,27,01,07,3.80
2009,11,27,01,08,3.70
2009,11,27,01,09,3.70
2009,11,27,01,10,3.70
2009,11,27,01,11,3.70
2009,11,27,01,12,3.70
2009,11,27,01,13,3.70
2009,11,27,01,14,3.70
2009,11,27,01,15,3.70
2009,11,27,01,16,3.70
2009,11,27,01,17,3.70
2009,11,27,01,18,3.70
2009,11,27,01,19,3.70
2009,11,27,01,20,3.70
2009,11,27,01,21,3.70
2009,11,27,01,22,3.70
2009,11,27,01,23,3.70
2009,11,27,01,24,3.70
2009,11,27,01,25,3.70
2009,11,27,01,26,3.60
2009,11,27,01,27,3.60
2009,11,27,01,28,3.60
2009,11,27,01,29,3.60
2009,11,27,01,30,3.60
2009,11,27,01,31,3.50
2009,11,27,01,32,3.50
2009,11,27,01,33,3.40
2009,11,27,01,34,3.40
2009,11,27,01,35,3.40
2009,11,27,01,36,3.30
2009,11,27,01,37,3.30
2009,11,27,01,38,3.30
2009,11,27,01,39,3.30
2009,11,27,01,40,3.30
2009,11,27,01,41,3.30
2009,11,27,01,42,3.30
2009,11,27,01,43,3.30
2009,11,27,01,44,3.30
2009,11,27,01,45,3.30
2009,11,27,01,46,3.30
2009,11,27,01,47,3.20
2009,11,27,01,48,3.20
2009,11,27,01,49,3.20
2009,11,27,01,50,3.20
2009,11,27,01,51,3.20
2009,11,27,01,52,3.20
2009,11,27,01,53,3.20
2009,11,27,01,54,3.10
2009,11,27,01,55,3.10
2009,11,27,01,56,3.10
2009,11,27,01,57,3.10
2009,11,27,01,58,3.10
2009,11,27,01,59,3.00
2009,11,27,02,00,3.00
2009,11,27,02,01,3.00
2009,11,27,02,02,3.00
2009,11,27,02,03,3.00
2009,11,27,02,04,3.10
2009,11,27,02,05,3.10
2009,11,27,02,06,3.00
2009,11,27,02,07,3.00
2009,11,27,02,08,3.00
2009,11,27,02,09,3.00
2009,11,27,02,10,3.00
2009,11,27,02,11,3.00
2009,11,27,02,12,2.90
2009,11,27,02,13,2.90
2009,11,27,02,14,2.90
2009,11,27,02,15,2.90
2009,11,27,02,16,2.90
2009,11,27,02,17,2.90
2009,11,27,02,18,2.90
2009,11,27,02,19,2.90
2009,11,27,02,20,2.90
2009,11,27,02,21,2.90
2009,11,27,02,22,2.90
2009,11,27,02,23,2.90
2009,11,27,02,24,2.90
2009,11,27,02,25,2.90
2009,11,27,02,26,2.90
2009,11,27,02,27,2.90
2009,11,27,02,28,2.80
2009,11,27,02,29,2.80
2009,11,27,02,30,2.80
2009,11,27,02,31,2.80
2009,11,27,02,32,2.80
2009,11,27,02,33,2.80
2009,11,27,02,34,2.80
2009,11,27,02,35,2.80
2009,11,27,02,36,2.70
2009,11,27,02,37,2.70
2009,11,27,02,38,2.70
2009,11,27,02,39,2.80
2009,11,27,02,40,2.80
2009,11,27,02,41,2.80
2009,11,27,02,42,2.80
2009,11,27,02,43,2.80
2009,11,27,02,44,2.80
2009,11,27,02,45,2.80
2009,11,27,02,46,2.80
2009,11,27,02,47,2.80
2009,11,27,02,48,2.80
2009,11,27,02,49,2.80
2009,11,27,02,50,2.80
2009,11,27,02,51,2.80
2009,11,27,02,52,2.80
2009,11,27,02,53,2.80
2009,11,27,02,54,2.80
2009,11,27,02,55,2.70
2009,11,27,02,56,2.70
2009,11,27,02,57,2.70
2009,11,27,02,58,2.70
2009,11,27,02,59,2.70
2009,11,27,03,00,2.60
2009,11,27,03,01,2.60
2009,11,27,03,02,2.50
2009,11,27,03,03,2.50
2009,11,27,03,04,2.50
2009,11,27,03,05,2.50
2009,11,27,03,06,2.40
2009,11,27,03,07,2.40
2009,11,27,03,08,2.40
2009,11,27,03,09,2.40
2009,11,27,03,10,2.40
2009,11,27,03,11,2.40
2009,11,27,03,12,2.40
2009,11,27,03,13,2.40
2009,11,27,03,14,2.50
2009,11,27,03,15,2.50
2009,11,27,03,16,2.60
2009,11,27,03,17,2.60
2009,11,27,03,18,2.60
2009,11,27,03,19,2.60
2009,11,27,03,20,2.60
2009,11,27,03,21,2.60
2009,11,27,03,22,2.60
2009,11,27,03,23,2.60
2009,11,27,03,24,2.60
2009,11,27,03,25,2.70
2009,11,27,03,26,2.70
2009,11,27,03,27,2.70
2009,11,27,03,28,2.70
2009,11,27,03,29,2.70
2009,11,27,03,30,2.70
2009,11,27,03,31,2.70
2009,11,27,03,32,2.70
2009,11,27,03,33,2.70
2009,11,27,03,34,2.70
2009,11,27,03,35,2.70
2009,11,27,03,36,2.70
2009,11,27,03,37,2.70
2009,11,27,03,38,2.60
2009,11,27,03,39,2.60
2009,11,27,03,40,2.50
2009,11,27,03,41,2.50
2009,11,27,03,42,2.40
2009,11,27,03,43,2.40
2009,11,27,03,44,2.40
2009,11,27,03,45,2.30
2009,11,27,03,46,2.30
2009,11,27,03,47,2.30
2009,11,27,03,48,2.30
2009,11,27,03,49,2.30
2009,11,27,03,50,2.30
2009,11,27,03,51,2.30
2009,11,27,03,52,2.20
2009,11,27,03,53,2.20
2009,11,27,03,54,2.20
2009,11,27,03,55,2.20
2009,11,27,03,56,2.20
2009,11,27,03,57,2.20
2009,11,27,03,58,2.20
2009,11,27,03,59,2.20
2009,11,27,04,00,2.20
2009,11,27,04,01,2.20
2009,11,27,04,02,2.10
2009,11,27,04,03,2.10
2009,11,27,04,04,2.10
2009,11,27,04,05,2.10
2009,11,27,04,06,2.10
2009,11,27,04,07,2.10
2009,11,27,04,08,2.10
2009,11,27,04,09,2.10
2009,11,27,04,10,2.10
2009,11,27,04,11,2.10
2009,11,27,04,12,2.10
2009,11,27,04,13,2.10
2009,11,27,04,14,2.10
2009,11,27,04,15,2.10
2009,11,27,04,16,2.10
2009,11,27,04,17,2.10
2009,11,27,04,18,2.10
2009,11,27,04,19,2.10
2009,11,27,04,20,2.10
2009,11,27,04,21,2.10
2009,11,27,04,22,2.10
2009,11,27,04,23,2.10
2009,11,27,04,24,2.10
2009,11,27,04,25,2.10
2009,11,27,04,26,2.10
2009,11,27,04,27,2.00
2009,11,27,04,28,2.00
2009,11,27,04,29,2.00
2009,11,27,04,30,2.00
2009,11,27,04,31,2.10
2009,11,27,04,32,2.10
2009,11,27,04,33,2.10
2009,11,27,04,34,2.10
2009,11,27,04,35,2.10
2009,11,27,04,36,2.10
2009,11,27,04,37,2.10
2009,11,27,04,38,2.10
2009,11,27,04,39,2.10
2009,11,27,04,40,2.10
2009,11,27,04,41,2.10
2009,11,27,04,42,2.00
2009,11,27,04,43,2.10
2009,11,27,04,44,2.10
2009,11,27,04,45,2.00
2009,11,27,04,46,2.00
2009,11,27,04,47,2.00
2009,11,27,04,48,2.00
2009,11,27,04,49,1.90
2009,11,27,04,50,1.90
2009,11,27,04,51,1.90
2009,11,27,04,52,1.90
2009,11,27,04,53,1.80
2009,11,27,04,54,1.80
2009,11,27,04,55,1.80
2009,11,27,04,56,1.90
2009,11,27,04,57,1.80
2009,11,27,04,58,1.80
2009,11,27,04,59,1.80
2009,11,27,05,00,1.80
2009,11,27,05,01,1.80
2009,11,27,05,02,1.80
2009,11,27,05,03,1.80
2009,11,27,05,04,1.80
2009,11,27,05,05,1.80
2009,11,27,05,06,1.70
2009,11,27,05,07,1.70
2009,11,27,05,08,1.70
2009,11,27,05,09,1.80
2009,11,27,05,10,1.80
2009,11,27,05,11,1.80
2009,11,27,05,12,1.80
2009,11,27,05,13,1.80
2009,11,27,05,14,1.90
2009,11,27,05,15,1.90
2009,11,27,05,16,1.90
2009,11,27,05,17,1.90
2009,11,27,05,18,1.90
2009,11,27,05,19,1.90
2009,11,27,05,20,1.90
2009,11,27,05,21,1.90
2009,11,27,05,22,1.90
2009,11,27,05,23,1.90
2009,11,27,05,24,1.90
2009,11,27,05,25,1.90
2009,11,27,05,26,1.90
2009,11,27,05,27,1.90
2009,11,27,05,28,1.90
2009,11,27,05,29,1.90
2009,11,27,05,30,1.90
2009,11,27,05,31,1.90
2009,11,27,05,32,1.90
2009,11,27,05,33,1.80
2009,11,27,05,34,1.80
2009,11,27,05,35,1.80
2009,11,27,05,36,1.80
2009,11,27,05,37,1.80
2009,11,27,05,38,1.80
2009,11,27,05,39,1.80
2009,11,27,05,40,1.80
2009,11,27,05,41,1.80
2009,11,27,05,42,1.80
2009,11,27,05,43,1.80
2009,11,27,05,44,1.80
2009,11,27,05,45,1.80
2009,11,27,05,46,1.90
2009,11,27,05,47,1.90
2009,11,27,05,48,1.90
2009,11,27,05,49,1.90
2009,11,27,05,50,1.90
2009,11,27,05,51,1.90
2009,11,27,05,52,1.90
2009,11,27,05,53,1.80
2009,11,27,05,54,1.80
2009,11,27,05,55,1.80
2009,11,27,05,56,1.80
2009,11,27,05,57,1.70
2009,11,27,05,58,1.70
2009,11,27,05,59,1.70
2009,11,27,06,00,1.70
2009,11,27,06,01,1.70
2009,11,27,06,02,1.60
2009,11,27,06,03,1.60
2009,11,27,06,04,1.60
2009,11,27,06,05,1.60
2009,11,27,06,06,1.50
2009,11,27,06,07,1.50
2009,11,27,06,08,1.50
2009,11,27,06,09,1.40
2009,11,27,06,10,1.40
2009,11,27,06,11,1.40
2009,11,27,06,12,1.40
2009,11,27,06,13,1.30
2009,11,27,06,14,1.30
2009,11,27,06,15,1.30
2009,11,27,06,16,1.30
2009,11,27,06,17,1.30
2009,11,27,06,18,1.30
2009,11,27,06,19,1.30
2009,11,27,06,20,1.30
2009,11,27,06,21,1.30
2009,11,27,06,22,1.30
2009,11,27,06,23,1.30
2009,11,27,06,24,1.30
2009,11,27,06,25,1.30
2009,11,27,06,26,1.30
2009,11,27,06,27,1.20
2009,11,27,06,28,1.20
2009,11,27,06,29,1.20
2009,11,27,06,30,1.10
2009,11,27,06,31,1.10
2009,11,27,06,32,1.10
2009,11,27,06,33,1.10
2009,11,27,06,34,1.10
2009,11,27,06,35,1.10
2009,11,27,06,36,1.10
2009,11,27,06,37,1.10
2009,11,27,06,38,1.10
2009,11,27,06,39,1.10
2009,11,27,06,40,1.10
2009,11,27,06,41,1.10
2009,11,27,06,42,1.10
2009,11,27,06,43,1.10
2009,11,27,06,44,1.10
2009,11,27,06,45,1.10
2009,11,27,06,46,1.10
2009,11,27,06,47,1.10
2009,11,27,06,48,1.10
2009,11,27,06,49,1.10
2009,11,27,06,50,1.10
2009,11,27,06,51,1.20
2009,11,27,06,52,1.30
2009,11,27,06,53,1.30
2009,11,27,06,54,1.30
2009,11,27,06,55,1.40
2009,11,27,06,56,1.50
2009,11,27,06,57,1.50
2009,11,27,06,58,1.50
2009,11,27,06,59,1.60
2009,11,27,07,00,1.60
2009,11,27,07,01,1.50
2009,11,27,07,02,1.40
2009,11,27,07,03,1.30
2009,11,27,07,04,1.30
2009,11,27,07,05,1.30
2009,11,27,07,06,1.30
2009,11,27,07,07,1.30
2009,11,27,07,08,1.20
2009,11,27,07,09,1.20
2009,11,27,07,10,1.10
2009,11,27,07,11,1.10
2009,11,27,07,12,1.10
2009,11,27,07,13,1.10
2009,11,27,07,14,1.10
2009,11,27,07,15,1.10
2009,11,27,07,16,1.20
2009,11,27,07,17,1.20
2009,11,27,07,18,1.30
2009,11,27,07,19,1.30
2009,11,27,07,20,1.30
2009,11,27,07,21,1.30
2009,11,27,07,22,1.30
2009,11,27,07,23,1.30
2009,11,27,07,24,1.30
2009,11,27,07,25,1.30
2009,11,27,07,26,1.30
2009,11,27,07,27,1.30
2009,11,27,07,28,1.30
2009,11,27,07,29,1.30
2009,11,27,07,30,1.30
2009,11,27,07,31,1.30
2009,11,27,07,32,1.30
2009,11,27,07,33,1.30
2009,11,27,07,34,1.30
2009,11,27,07,35,1.30
2009,11,27,07,36,1.30
2009,11,27,07,37,1.30
2009,11,27,07,38,1.30
2009,11,27,07,39,1.30
2009,11,27,07,40,1.30
2009,11,27,07,41,1.30
2009,11,27,07,42,1.30
2009,11,27,07,43,1.30
2009,11,27,07,44,1.30
2009,11,27,07,45,1.30
2009,11,27,07,46,1.30
2009,11,27,07,47,1.30
2009,11,27,07,48,1.30
2009,11,27,07,49,1.30
2009,11,27,07,50,1.30
2009,11,27,07,51,1.30
2009,11,27,07,52,1.30
2009,11,27,07,53,1.30
2009,11,27,07,54,1.30
2009,11,27,07,55,1.30
2009,11,27,07,56,1.20
2009,11,27,07,57,1.20
2009,11,27,07,58,1.20
2009,11,27,07,59,1.20
2009,11,27,08,00,1.20
2009,11,27,08,01,1.20
2009,11,27,08,02,1.20
2009,11,27,08,03,1.20
2009,11,27,08,04,1.20
2009,11,27,08,05,1.30
2009,11,27,08,06,1.30
2009,11,27,08,07,1.30
2009,11,27,08,08,1.30
2009,11,27,08,09,1.30
2009,11,27,08,10,1.30
2009,11,27,08,11,1.30
2009,11,27,08,12,1.20
2009,11,27,08,13,1.20
2009,11,27,08,14,1.20
2009,11,27,08,15,1.20
2009,11,27,08,16,1.20
2009,11,27,08,17,1.20
2009,11,27,08,18,1.10
2009,11,27,08,19,1.10
2009,11,27,08,20,1.10
2009,11,27,08,21,1.10
2009,11,27,08,22,1.10
2009,11,27,08,23,1.10
2009,11,27,08,24,1.00
2009,11,27,08,25,1.00
2009,11,27,08,26,1.00
2009,11,27,08,27,1.00
2009,11,27,08,28,1.10
2009,11,27,08,29,1.10
2009,11,27,08,30,1.10
2009,11,27,08,31,1.10
2009,11,27,08,32,1.10
2009,11,27,08,33,1.20
2009,11,27,08,34,1.20
2009,11,27,08,35,1.30
2009,11,27,08,36,1.30
2009,11,27,08,37,1.30
2009,11,27,08,38,1.40
2009,11,27,08,39,1.50
2009,11,27,08,40,1.50
2009,11,27,08,41,1.60
2009,11,27,08,42,1.60
2009,11,27,08,43,1.60
2009,11,27,08,44,1.70
2009,11,27,08,45,1.70
2009,11,27,08,46,1.70
2009,11,27,08,47,1.70
2009,11,27,08,48,1.70
2009,11,27,08,49,1.80
2009,11,27,08,50,1.80
2009,11,27,08,51,1.80
2009,11,27,08,52,1.90
2009,11,27,08,53,1.90
2009,11,27,08,54,1.90
2009,11,27,08,55,2.00
2009,11,27,08,56,2.00
2009,11,27,08,57,2.10
2009,11,27,08,58,2.10
2009,11,27,08,59,2.10
2009,11,27,09,00,2.20
2009,11,27,09,01,2.20
2009,11,27,09,02,2.30
2009,11,27,09,03,2.30
2009,11,27,09,04,2.40
2009,11,27,09,05,2.40
2009,11,27,09,06,2.50
2009,11,27,09,07,2.50
2009,11,27,09,08,2.60
2009,11,27,09,09,2.60
2009,11,27,09,10,2.60
2009,11,27,09,11,2.70
2009,11,27,09,12,2.70
2009,11,27,09,13,2.70
2009,11,27,09,14,2.70
2009,11,27,09,15,2.80
2009,11,27,09,16,2.80
2009,11,27,09,17,2.80
2009,11,27,09,18,2.90
2009,11,27,09,19,2.90
2009,11,27,09,20,3.00
2009,11,27,09,21,3.00
2009,11,27,09,22,3.10
2009,11,27,09,23,3.10
2009,11,27,09,24,3.20
2009,11,27,09,25,3.20
2009,11,27,09,26,3.20
2009,11,27,09,27,3.30
2009,11,27,09,28,3.30
2009,11,27,09,29,3.30
2009,11,27,09,30,3.30
2009,11,27,09,31,3.30
2009,11,27,09,32,3.30
2009,11,27,09,33,3.30
2009,11,27,09,34,3.40
2009,11,27,09,35,3.40
2009,11,27,09,36,3.40
2009,11,27,09,37,3.40
2009,11,27,09,38,3.40
2009,11,27,09,39,3.50
2009,11,27,09,40,3.50
2009,11,27,09,41,3.50
2009,11,27,09,42,3.60
2009,11,27,09,43,3.60
2009,11,27,09,44,3.70
2009,11,27,09,45,3.70
2009,11,27,09,46,3.80
2009,11,27,09,47,3.80
2009,11,27,09,48,3.90
2009,11,27,09,49,4.00
2009,11,27,09,50,4.10
2009,11,27,09,51,4.10
2009,11,27,09,52,4.20
2009,11,27,09,53,4.20
2009,11,27,09,54,4.30
2009,11,27,09,55,4.40
2009,11,27,09,56,4.40
2009,11,27,09,57,4.50
2009,11,27,09,58,4.60
2009,11,27,09,59,4.70
2009,11,27,10,00,4.80
2009,11,27,10,01,4.90
2009,11,27,10,02,5.00
2009,11,27,10,03,5.10
2009,11,27,10,04,5.20
2009,11,27,10,05,5.20
2009,11,27,10,06,5.30
2009,11,27,10,07,5.40
2009,11,27,10,08,5.40
2009,11,27,10,09,5.50
2009,11,27,10,10,5.50
2009,11,27,10,11,5.60
2009,11,27,10,12,5.70
2009,11,27,10,13,5.70
2009,11,27,10,14,5.70
2009,11,27,10,15,5.80
2009,11,27,10,16,5.80
2009,11,27,10,17,5.90
2009,11,27,10,18,5.90
2009,11,27,10,19,6.00
2009,11,27,10,20,6.10
2009,11,27,10,21,6.20
2009,11,27,10,22,6.20
2009,11,27,10,23,6.30
2009,11,27,10,24,6.30
2009,11,27,10,25,6.30
2009,11,27,10,26,6.30
2009,11,27,10,27,6.30
2009,11,27,10,28,6.40
2009,11,27,10,29,6.40
2009,11,27,10,30,6.50
2009,11,27,10,31,6.60
2009,11,27,10,32,6.70
2009,11,27,10,33,6.80
2009,11,27,10,34,6.80
2009,11,27,10,35,6.90
2009,11,27,10,36,6.90
2009,11,27,10,37,6.90
2009,11,27,10,38,7.00
2009,11,27,10,39,7.10
2009,11,27,10,40,7.10
2009,11,27,10,41,7.10
2009,11,27,10,42,7.20
2009,11,27,10,43,7.20
2009,11,27,10,44,7.10
2009,11,27,10,45,7.10
2009,11,27,10,46,7.10
2009,11,27,10,47,7.10
2009,11,27,10,48,7.20
2009,11,27,10,49,7.20
2009,11,27,10,50,7.20
2009,11,27,10,51,7.20
2009,11,27,10,52,7.20
2009,11,27,10,53,7.30
2009,11,27,10,54,7.30
2009,11,27,10,55,7.40
2009,11,27,10,56,7.50
2009,11,27,10,57,7.50
2009,11,27,10,58,7.60
2009,11,27,10,59,7.60
2009,11,27,11,00,7.60
2009,11,27,11,01,7.60
2009,11,27,11,02,7.70
2009,11,27,11,03,7.70
2009,11,27,11,04,7.80
2009,11,27,11,05,7.80
2009,11,27,11,06,7.90
2009,11,27,11,07,8.00
2009,11,27,11,08,8.10
2009,11,27,11,09,8.20
2009,11,27,11,10,8.30
2009,11,27,11,11,8.30
2009,11,27,11,12,8.40
2009,11,27,11,13,8.40
2009,11,27,11,14,8.40
2009,11,27,11,15,8.50
2009,11,27,11,16,8.50
2009,11,27,11,17,8.60
2009,11,27,11,18,8.60
2009,11,27,11,19,8.70
2009,11,27,11,20,8.70
2009,11,27,11,21,8.70
2009,11,27,11,22,8.80
2009,11,27,11,23,8.80
2009,11,27,11,24,8.80
2009,11,27,11,25,8.70
2009,11,27,11,26,8.70
2009,11,27,11,27,8.70
2009,11,27,11,28,8.60
2009,11,27,11,29,8.60
2009,11,27,11,30,8.60
2009,11,27,11,31,8.60
2009,11,27,11,32,8.60
2009,11,27,11,33,8.60
2009,11,27,11,34,8.70
2009,11,27,11,35,8.70
2009,11,27,11,36,8.70
2009,11,27,11,37,8.70
2009,11,27,11,38,8.70
2009,11,27,11,39,8.60
2009,11,27,11,40,8.60
2009,11,27,11,41,8.60
2009,11,27,11,42,8.70
2009,11,27,11,43,8.70
2009,11,27,11,44,8.60
2009,11,27,11,45,8.60
2009,11,27,11,46,8.50
2009,11,27,11,47,8.50
2009,11,27,11,48,8.40
2009,11,27,11,49,8.40
2009,11,27,11,50,8.40
2009,11,27,11,51,8.40
2009,11,27,11,52,8.40
2009,11,27,11,53,8.40
2009,11,27,11,54,8.50
2009,11,27,11,55,8.50
2009,11,27,11,56,8.50
2009,11,27,11,57,8.60
2009,11,27,11,58,8.60
2009,11,27,11,59,8.60
2009,11,27,12,00,8.60
2009,11,27,12,01,8.70
2009,11,27,12,02,8.70
2009,11,27,12,03,8.80
2009,11,27,12,04,8.80
2009,11,27,12,05,8.90
2009,11,27,12,06,8.90
2009,11,27,12,07,9.00
2009,11,27,12,08,9.00
2009,11,27,12,09,9.00
2009,11,27,12,10,9.00
2009,11,27,12,11,9.00
2009,11,27,12,12,9.00
2009,11,27,12,13,9.10
2009,11,27,12,14,9.10
2009,11,27,12,15,9.00
2009,11,27,12,16,9.00
2009,11,27,12,17,8.90
2009,11,27,12,18,8.90
2009,11,27,12,19,8.90
2009,11,27,12,20,8.90
2009,11,27,12,21,8.90
2009,11,27,12,22,9.00
2009,11,27,12,23,9.00
2009,11,27,12,24,8.90
2009,11,27,12,25,8.90
2009,11,27,12,26,8.90
2009,11,27,12,27,8.80
2009,11,27,12,28,8.80
2009,11,27,12,29,8.80
2009,11,27,12,30,8.80
2009,11,27,12,31,8.80
2009,11,27,12,32,8.80
2009,11,27,12,33,8.80
2009,11,27,12,34,8.80
2009,11,27,12,35,8.80
2009,11,27,12,36,8.80
2009,11,27,12,37,8.80
2009,11,27,12,38,8.90
2009,11,27,12,39,8.90
2009,11,27,12,40,8.90
2009,11,27,12,41,8.90
2009,11,27,12,42,8.80
2009,11,27,12,43,8.80
2009,11,27,12,44,8.80
2009,11,27,12,45,8.70
2009,11,27,12,46,8.70
2009,11,27,12,47,8.70
2009,11,27,12,48,8.60
2009,11,27,12,49,8.60
2009,11,27,12,50,8.60
2009,11,27,12,51,8.50
2009,11,27,12,52,8.50
2009,11,27,12,53,8.50
2009,11,27,12,54,8.50
2009,11,27,12,55,8.50
2009,11,27,12,56,8.50
2009,11,27,12,57,8.40
2009,11,27,12,58,8.40
2009,11,27,12,59,8.40
2009,11,27,13,00,8.30
2009,11,27,13,01,8.30
2009,11,27,13,02,8.30
2009,11,27,13,03,8.30
2009,11,27,13,04,8.30
2009,11,27,13,05,8.30
2009,11,27,13,06,8.30
2009,11,27,13,07,8.30
2009,11,27,13,08,8.30
2009,11,27,13,09,8.20
2009,11,27,13,10,8.20
2009,11,27,13,11,8.20
2009,11,27,13,12,8.20
2009,11,27,13,13,8.20
2009,11,27,13,14,8.20
2009,11,27,13,15,8.20
2009,11,27,13,16,8.20
2009,11,27,13,17,8.20
2009,11,27,13,18,8.20
2009,11,27,13,19,8.20
2009,11,27,13,20,8.30
2009,11,27,13,21,8.30
2009,11,27,13,22,8.40
2009,11,27,13,23,8.40
2009,11,27,13,24,8.50
2009,11,27,13,25,8.50
2009,11,27,13,26,8.60
2009,11,27,13,27,8.60
2009,11,27,13,28,8.60
2009,11,27,13,29,8.60
2009,11,27,13,30,8.70
2009,11,27,13,31,8.70
2009,11,27,13,32,8.70
2009,11,27,13,33,8.70
2009,11,27,13,34,8.70
2009,11,27,13,35,8.70
2009,11,27,13,36,8.70
2009,11,27,13,37,8.70
2009,11,27,13,38,8.70
2009,11,27,13,39,8.60
2009,11,27,13,40,8.60
2009,11,27,13,41,8.60
2009,11,27,13,42,8.60
2009,11,27,13,43,8.60
2009,11,27,13,44,8.60
2009,11,27,13,45,8.60
2009,11,27,13,46,8.60
2009,11,27,13,47,8.60
2009,11,27,13,48,8.60
2009,11,27,13,49,8.60
2009,11,27,13,50,8.60
2009,11,27,13,51,8.60
2009,11,27,13,52,8.60
2009,11,27,13,53,8.60
2009,11,27,13,54,8.60
2009,11,27,13,55,8.60
2009,11,27,13,56,8.60
2009,11,27,13,57,8.50
2009,11,27,13,58,8.50
2009,11,27,13,59,8.50
2009,11,27,14,00,8.50
2009,11,27,14,01,8.50
2009,11,27,14,02,8.50
2009,11,27,14,03,8.50
2009,11,27,14,04,8.60
2009,11,27,14,05,8.60
2009,11,27,14,06,8.60
2009,11,27,14,07,8.70
2009,11,27,14,08,8.70
2009,11,27,14,09,8.70
2009,11,27,14,10,8.80
2009,11,27,14,11,8.80
2009,11,27,14,12,8.80
2009,11,27,14,13,8.90
2009,11,27,14,14,8.90
2009,11,27,14,15,9.00
2009,11,27,14,16,9.00
2009,11,27,14,17,9.10
2009,11,27,14,18,9.10
2009,11,27,14,19,9.10
2009,11,27,14,20,9.20
2009,11,27,14,21,9.20
2009,11,27,14,22,9.20
2009,11,27,14,23,9.20
2009,11,27,14,24,9.20
2009,11,27,14,25,9.20
2009,11,27,14,26,9.20
2009,11,27,14,27,9.20
2009,11,27,14,28,9.20
2009,11,27,14,29,9.20
2009,11,27,14,30,9.20
2009,11,27,14,31,9.20
2009,11,27,14,32,9.20
2009,11,27,14,33,9.10
2009,11,27,14,34,9.10
2009,11,27,14,35,9.10
2009,11,27,14,36,9.00
2009,11,27,14,37,9.00
2009,11,27,14,38,8.90
2009,11,27,14,39,8.90
2009,11,27,14,40,8.90
2009,11,27,14,41,8.90
2009,11,27,14,42,8.90
2009,11,27,14,43,8.90
2009,11,27,14,44,8.90
2009,11,27,14,45,8.90
2009,11,27,14,46,8.80
2009,11,27,14,47,8.80
2009,11,27,14,48,8.80
2009,11,27,14,49,8.80
2009,11,27,14,50,8.70
2009,11,27,14,51,8.70
2009,11,27,14,52,8.70
2009,11,27,14,53,8.70
2009,11,27,14,54,8.70
2009,11,27,14,55,8.70
2009,11,27,14,56,8.70
2009,11,27,14,57,8.60
2009,11,27,14,58,8.60
2009,11,27,14,59,8.60
2009,11,27,15,00,8.60
2009,11,27,15,01,8.50
2009,11,27,15,02,8.50
2009,11,27,15,03,8.40
2009,11,27,15,04,8.40
2009,11,27,15,05,8.40
2009,11,27,15,06,8.40
2009,11,27,15,07,8.40
2009,11,27,15,08,8.30
2009,11,27,15,09,8.30
2009,11,27,15,10,8.30
2009,11,27,15,11,8.30
2009,11,27,15,12,8.30
2009,11,27,15,13,8.30
2009,11,27,15,14,8.30
2009,11,27,15,15,8.30
2009,11,27,15,16,8.30
2009,11,27,15,17,8.30
2009,11,27,15,18,8.20
2009,11,27,15,19,8.20
2009,11,27,15,20,8.20
2009,11,27,15,21,8.20
2009,11,27,15,22,8.20
2009,11,27,15,23,8.20
2009,11,27,15,24,8.20
2009,11,27,15,25,8.20
2009,11,27,15,26,8.20
2009,11,27,15,27,8.20
2009,11,27,15,28,8.10
2009,11,27,15,29,8.10
2009,11,27,15,30,8.10
2009,11,27,15,31,8.10
2009,11,27,15,32,8.10
2009,11,27,15,33,8.10
2009,11,27,15,34,8.00
2009,11,27,15,35,8.00
2009,11,27,15,36,8.00
2009,11,27,15,37,8.00
2009,11,27,15,38,8.00
2009,11,27,15,39,8.00
2009,11,27,15,40,7.90
2009,11,27,15,41,7.90
2009,11,27,15,42,7.90
2009,11,27,15,43,7.90
2009,11,27,15,44,7.90
2009,11,27,15,45,7.90
2009,11,27,15,46,7.90
2009,11,27,15,47,7.90
2009,11,27,15,48,7.90
2009,11,27,15,49,7.80
2009,11,27,15,50,7.80
2009,11,27,15,51,7.80
2009,11,27,15,52,7.80
2009,11,27,15,53,7.80
2009,11,27,15,54,7.70
2009,11,27,15,55,7.70
2009,11,27,15,56,7.70
2009,11,27,15,57,7.70
2009,11,27,15,58,7.70
2009,11,27,15,59,7.60
2009,11,27,16,00,7.60
2009,11,27,16,01,7.60
2009,11,27,16,02,7.50
2009,11,27,16,03,7.50
2009,11,27,16,04,7.50
2009,11,27,16,05,7.40
2009,11,27,16,06,7.40
2009,11,27,16,07,7.40
2009,11,27,16,08,7.30
2009,11,27,16,09,7.30
2009,11,27,16,10,7.30
2009,11,27,16,11,7.20
2009,11,27,16,12,7.20
2009,11,27,16,13,7.20
2009,11,27,16,14,7.20
2009,11,27,16,15,7.20
2009,11,27,16,16,7.20
2009,11,27,16,17,7.10
2009,11,27,16,18,7.10
2009,11,27,16,19,7.10
2009,11,27,16,20,7.10
2009,11,27,16,21,7.00
2009,11,27,16,22,7.00
2009,11,27,16,23,7.00
2009,11,27,16,24,6.90
2009,11,27,16,25,6.90
2009,11,27,16,26,6.90
2009,11,27,16,27,6.90
2009,11,27,16,28,6.90
2009,11,27,16,29,6.80
2009,11,27,16,30,6.80
2009,11,27,16,31,6.80
2009,11,27,16,32,6.80
2009,11,27,16,33,6.80
2009,11,27,16,34,6.80
2009,11,27,16,35,6.80
2009,11,27,16,36,6.80
2009,11,27,16,37,6.70
2009,11,27,16,38,6.70
2009,11,27,16,39,6.70
2009,11,27,16,40,6.70
2009,11,27,16,41,6.70
2009,11,27,16,42,6.60
2009,11,27,16,43,6.60
2009,11,27,16,44,6.50
2009,11,27,16,45,6.50
2009,11,27,16,46,6.50
2009,11,27,16,47,6.40
2009,11,27,16,48,6.40
2009,11,27,16,49,6.30
2009,11,27,16,50,6.30
2009,11,27,16,51,6.30
2009,11,27,16,52,6.30
2009,11,27,16,53,6.30
2009,11,27,16,54,6.30
2009,11,27,16,55,6.30
2009,11,27,16,56,6.30
2009,11,27,16,57,6.30
2009,11,27,16,58,6.30
2009,11,27,16,59,6.20
2009,11,27,17,00,6.20
2009,11,27,17,01,6.20
2009,11,27,17,02,6.20
2009,11,27,17,03,6.20
2009,11,27,17,04,6.20
2009,11,27,17,05,6.20
2009,11,27,17,06,6.20
2009,11,27,17,07,6.20
2009,11,27,17,08,6.20
2009,11,27,17,09,6.20
2009,11,27,17,10,6.20
2009,11,27,17,11,6.20
2009,11,27,17,12,6.20
2009,11,27,17,13,6.20
2009,11,27,17,14,6.20
2009,11,27,17,15,6.20
2009,11,27,17,16,6.20
2009,11,27,17,17,6.20
2009,11,27,17,18,6.20
2009,11,27,17,19,6.20
2009,11,27,17,20,6.20
2009,11,27,17,21,6.10
2009,11,27,17,22,6.10
2009,11,27,17,23,6.10
2009,11,27,17,24,6.10
2009,11,27,17,25,6.10
2009,11,27,17,26,6.10
2009,11,27,17,27,6.10
2009,11,27,17,28,6.10
2009,11,27,17,29,6.10
2009,11,27,17,30,6.10
2009,11,27,17,31,6.10
2009,11,27,17,32,6.10
2009,11,27,17,33,6.20
2009,11,27,17,34,6.20
2009,11,27,17,35,6.20
2009,11,27,17,36,6.30
2009,11,27,17,37,6.30
2009,11,27,17,38,6.30
2009,11,27,17,39,6.30
2009,11,27,17,40,6.30
2009,11,27,17,41,6.30
2009,11,27,17,42,6.30
2009,11,27,17,43,6.30
2009,11,27,17,44,6.40
2009,11,27,17,45,6.40
2009,11,27,17,46,6.40
2009,11,27,17,47,6.40
2009,11,27,17,48,6.40
2009,11,27,17,49,6.40
2009,11,27,17,50,6.40
2009,11,27,17,51,6.40
2009,11,27,17,52,6.40
2009,11,27,17,53,6.40
2009,11,27,17,54,6.40
2009,11,27,17,55,6.50
2009,11,27,17,56,6.50
2009,11,27,17,57,6.50
2009,11,27,17,58,6.60
2009,11,27,17,59,6.60
2009,11,27,18,00,6.60
2009,11,27,18,01,6.70
2009,11,27,18,02,6.70
2009,11,27,18,03,6.70
2009,11,27,18,04,6.70
2009,11,27,18,05,6.70
2009,11,27,18,06,6.70